Tracking 25648 objects as of 17-May-2022
HD Live streaming from Space Station
objects crossing your sky now

COSMOS 1199

Track COSMOS 1199 now!
10-day predictions
COSMOS 1199 is classified as:


NORAD ID: 11882
Int'l Code: 1980-058H
Perigee: 1,480.1 km
Apogee: 1,537.5 km
Inclination: 74.0 °
Period: 116.0 minutes
Semi major axis: 7879 km
RCS: 0.728 m2 (medium)
Launch date: July 9, 1980
Source: Commonwealth of Independent States (former USSR) (CIS)
Launch site: PLESETSK MISSILE AND SPACE COMPLEX (PKMTR)
aabbcc
Your satellite tracking list
Your tracking list is empty




NASA's NSSDC Master Catalog

Two Line Element Set (TLE):
1 11882U 80058H   22136.66595005 -.00000033  00000-0 -12730-3 0  9995
2 11882  74.0158 113.5619 0036428 358.3247 113.3877 12.41175745896288
Source of the keplerian elements: AFSPC